Regional Weather Roundup
Issued by NWS

Home | Current Version | Previous Version | Graphics & Text | Print | Product List | Glossary On
Versions: 1 2 3 4 5 6 7 8 9 10 11 12 13 14 15 16 17 18 19 20 21 22 23 24 25 26 27 28 29 30 31 32 33 34 35 36 37 38 39 40 41 42 43 44 45 46 47 48 49 50
000
ASUS43 KLMK 062102
RWRKY
KENTUCKY REGIONAL WEATHER ROUNDUP
NATIONAL WEATHER SERVICE LOUISVILLE KY
400 PM EST TUE DEC 06 2016

NOTE "FAIR" INDICATES FEW OR NO CLOUDS BELOW 12,000 FEET
WITH NO SIGNIFICANT WEATHER AND/OR OBSTRUCTIONS TO VISIBILITY.

KYZ001>023-026-027-061>063-070>075-062200-
WESTERN AND SOUTH CENTRAL KENTUCKY

CITY           SKY/WX    TMP DP  RH WIND       PRES   REMARKS
PADUCAH        PTSUNNY   45  35  68 NW13      29.92R
HENDERSON      CLOUDY    41  34  75 W16G23    29.91R
OWENSBORO      CLOUDY    43  39  86 NW18      29.88R FOG
HOPKINSVILLE   NOT AVBL
BOWLING GREEN  CLOUDY    46  43  89 NW9       29.86R
GLASGOW        NOT AVBL
$$

KYZ024-025-028>034-038-045-046-053-062200-
NORTH CENTRAL KENTUCKY

CITY           SKY/WX    TMP DP  RH WIND       PRES   REMARKS
LOUISVILLE/SDF CLOUDY    46  41  82 NW10      29.81R
LOUISVILLE/LOU CLOUDY    46  41  82 W12       29.80R
FORT KNOX      NOT AVBL
$$

KYZ035>037-039>044-047>052-055>060-089>105-062200-
NORTHEAST KENTUCKY

CITY           SKY/WX    TMP DP  RH WIND       PRES   REMARKS
LEXINGTON      CLOUDY    45  42  89 NW15G24   29.77R
COVINGTON      CLOUDY    43  41  93 NW16      29.73R
FRANKFORT      CLOUDY    45  41  86 NW8       29.76R
$$

KYZ054-064>069-076>088-106>120-062200-
SOUTHEAST KENTUCKY

CITY           SKY/WX    TMP DP  RH WIND       PRES   REMARKS
JACKSON        LGT RAIN  52  51  97 SW5       29.69R VSB 1/4
LONDON         CLOUDY    52  51  97 SW5       29.71R
SOMERSET       CLOUDY    50  50 100 NW9G20    29.77R FOG
MIDDLESBORO    CLOUDY    51  50  99 CALM      29.73S
MONTICELLO     LGT RAIN  50  49  96 NW15      29.78R FOG
$$





USA.gov is the U.S. government's official web portal to all federal, state and local government web resources and services.